[[{"header":{"parameterUnit":"m.s-1","parameterCategory":1,"la1":30.2991,"la2":30.254,"lo1":-89.0895,"lo2":-89.0444,"dy":0.0017,"dx":0.0017,"nx":28,"ny":28,"refTime":"2025-06-11T09:00:00:Z","depth":0,"parameterNumber":2,"parameterNumberName":"U-component_of_WINDS"},"data":[0,0,0,0,0,0,0,0,0,0,0,0,0,0,0,0,0,0,0,0,0,0,0,0,0,0,0,0,0,0,0,0,0,0,0,0,0,0,0,0,0,0,0,0,0,0,0,0,0,0,0,0,0,0,0,0,0,0,-2.6423,-2.6424,0,-2.6507,-2.6508,-2.6509,-2.6495,-2.6493,-2.6492,-2.6491,-2.6578,-2.6581,-2.6585,0,0,0,0,0,0,0,0,0,0,0,0,0,-2.6254,-2.6258,-2.6423,-2.6424,-2.6425,-2.6506,-2.6508,-2.6509,-2.6495,-2.6493,-2.6492,-2.649,-2.6577,-2.6581,-2.6585,0,0,0,0,0,0,0,0,0,0,0,0,0,-2.6332,-2.6259,-2.6423,-2.6428,-2.643,-2.6506,-2.6508,-2.6509,-2.6496,-2.6493,-2.6491,-2.6489,-2.6575,-2.6581,-2.6586,-2.6663,0,0,-2.6603,-2.6605,0,0,0,0,0,0,0,0,-2.6327,-2.6338,-2.6426,-2.6428,-2.643,-2.6488,-2.648,-2.6561,-2.6496,-2.6471,-2.6491,-2.6488,-2.655,-2.6557,-2.6578,-2.6667,-2.6671,-2.6603,-2.6607,-2.6609,-2.6611,0,0,0,0,0,0,0,-2.6322,-2.6334,-2.6456,-2.6428,-2.643,-2.6427,-2.6436,-2.6495,-2.6521,-2.6473,-2.6472,-2.6482,-2.655,-2.6572,-2.658,-2.6672,-2.6603,-2.6608,-2.6611,-2.6614,-2.683,-2.6832,0,0,0,0,0,0,-2.6315,-2.633,-2.6454,-2.6459,-2.6372,-2.6432,-2.6442,-2.6472,-2.6521,-2.6526,-2.6483,-2.6481,-2.6564,-2.6573,-2.6583,-2.6676,-2.6609,-2.6614,-2.6617,-2.6828,-2.6831,-2.6833,0,0,0,0,0,0,-2.6311,-2.6326,-2.645,-2.6394,-2.641,-2.6437,-2.6471,-2.6474,-2.6496,-2.6529,-2.6534,-2.6501,-2.6563,-2.6575,-2.6643,-2.6679,-2.6617,-2.6622,-2.6825,-2.6828,-2.6832,-2.6864,0,0,0,0,0,0,-2.6307,-2.6325,-2.6354,-2.6395,-2.6413,-2.6509,-2.6473,-2.6478,-2.6506,-2.6503,-2.6547,-2.6552,-2.6562,-2.6635,-2.6649,-2.6686,-2.6626,-2.6822,-2.6826,-2.6831,-2.686,-2.6869,-2.6876,0,0,0,0,0,-2.6301,-2.636,-2.6356,-2.6371,-2.645,-2.6511,-2.6521,-2.6531,-2.6509,-2.6539,-2.6559,-2.6551,-2.6673,-2.6642,-2.6657,-2.6697,-2.6819,-2.6825,-2.683,-2.6857,-2.6867,-2.6876,0,0,0,0,0,0,-2.6324,-2.6366,-2.6361,-2.6435,-2.647,-2.6508,-2.6546,-2.6542,-2.6583,-2.6579,-2.659,-2.66,-2.667,-2.669,-2.6655,-2.6774,-2.6743,-2.6752,-2.6758,-2.6768,-2.6776,-2.6769,-2.663,0,0,0,0,0,-2.6337,-2.6383,-2.6417,-2.648,-2.6497,-2.6519,-2.6546,-2.6551,-2.6587,-2.6601,-2.6627,-2.6663,-2.671,-2.674,-2.6785,-2.6863,-2.6873,-2.6898,-2.6906,-2.6912,-2.6919,-2.6962,-2.6974,-2.6851,-2.6851,-2.6851,0,0,-2.6366,-2.6395,-2.6423,-2.6485,-2.6512,-2.656,-2.6531,-2.6583,-2.6618,-2.6609,-2.6675,-2.6696,-2.6736,-2.681,-2.6844,-2.6829,-2.6955,-2.6919,-2.6924,-2.6928,-2.6969,-2.6981,-2.6991,-2.6855,-2.6854,-2.6854,0,0,-2.6443,-2.6469,-2.6524,-2.6551,-2.6592,-2.6606,-2.6619,-2.6659,-2.6672,-2.6738,-2.6733,-2.6776,-2.6856,-2.6885,-2.691,-2.6998,-2.6992,-2.7013,-2.7054,-2.7096,-2.7105,-2.7114,-2.7145,-2.7156,-2.702,-2.702,-2.702,0,-2.6473,-2.6544,-2.6553,-2.6605,-2.6632,-2.6626,-2.6682,-2.6709,-2.6762,-2.6782,-2.6765,-2.6865,-2.6892,-2.6973,-2.6994,-2.7015,-2.7031,-2.7007,-2.7103,-2.7112,-2.712,-2.715,-2.7161,-2.7022,-2.7022,-2.7022,-2.7022,0,-2.658,-2.6629,-2.6668,-2.6719,-2.6752,-2.6805,-2.6823,-2.6855,-2.6857,-2.6873,-2.6941,-2.6973,-2.7024,-2.7044,-2.7047,-2.7125,-2.7114,-2.71,-2.7069,-2.7134,-2.7162,-2.7173,-2.7026,-2.7025,-2.7024,-2.7024,0,0,-2.6673,-2.6728,-2.6742,-2.6765,-2.681,-2.6849,-2.6903,-2.6952,-2.6979,-2.7017,-2.7062,-2.713,-2.7117,-2.7146,-2.7152,-2.7189,-2.7256,-2.717,-2.7171,-2.7185,-2.7345,-2.7354,-2.7368,-2.7253,-2.7255,-2.7257,-2.7341,0,-2.6753,-2.6847,-2.6856,-2.6941,-2.6986,-2.6981,-2.7028,-2.7061,-2.7078,-2.7119,-2.7138,-2.7186,-2.7166,-2.7183,-2.7219,-2.724,-2.7289,-2.7235,-2.7295,-2.7297,-2.7284,-2.7382,-2.7393,-2.7471,-2.7352,-2.7354,-2.7355,0,-2.6859,-2.6899,-2.6988,-2.7026,-2.7045,-2.7087,-2.7133,-2.7173,-2.7211,-2.722,-2.7253,-2.7254,-2.731,-2.7277,-2.7355,-2.7318,-2.7344,-2.7358,-2.7361,-2.7367,-2.733,-2.739,-2.7496,-2.7508,-2.7373,-2.7371,-2.737,0,-2.6918,-2.6994,-2.7056,-2.7076,-2.7123,-2.7152,-2.7173,-2.7209,-2.7238,-2.7278,-2.7297,-2.7344,-2.737,-2.7407,-2.7421,-2.7396,-2.7498,-2.7466,-2.7508,-2.7507,-2.7529,-2.7527,-2.764,-2.7546,-2.7546,-2.7546,-2.7546,0,-2.7007,-2.7061,-2.7083,-2.7122,-2.7182,-2.7193,-2.7254,-2.7273,-2.7305,-2.7348,-2.7347,-2.7387,-2.7404,-2.7447,-2.7458,-2.7521,-2.7533,-2.7542,-2.7545,-2.7542,-2.7541,-2.7559,-2.7553,-2.7549,-2.7548,-2.7548,-2.7547,0,-2.7082,-2.7099,-2.7167,-2.7205,-2.7216,-2.7259,-2.7292,-2.733,-2.7346,-2.74,-2.7414,-2.744,-2.749,-2.7508,-2.757,-2.7578,-2.765,-2.7648,-2.7637,-2.7638,-2.7678,-2.7674,-2.7806,-2.7823,-2.7718,-2.7719,-2.772,0,-2.7137,-2.7179,-2.7221,-2.7249,-2.7271,-2.7316,-2.7346,-2.7359,-2.7389,-2.7435,-2.7468,-2.7518,-2.7559,-2.764,-2.7665,-2.7712,-2.7711,-2.7754,-2.7718,-2.7714,-2.7711,-2.7709,-2.7713,-2.7761,-2.7762,-2.7763,-2.7763,0,-2.7233,-2.724,-2.7282,-2.7327,-2.7361,-2.7398,-2.7433,-2.7456,-2.7475,-2.7509,-2.7561,-2.7592,-2.7655,-2.7705,-2.7754,-2.7776,-2.7773,-2.7775,-2.7786,-2.7784,-2.7776,-2.778,-2.7655,-2.7771,-2.7771,-2.777,-2.777,-2.7769,-2.7301,-2.7337,-2.7372,-2.7419,-2.7447,-2.748,-2.7517,-2.7537,-2.758,-2.7631,-2.7637,-2.7692,-2.7729,-2.7794,-2.7818,-2.7862,-2.7851,-2.7868,-2.7872,-2.7876,-2.7879,-2.7769,-2.7871,-2.7871,-2.7871,-2.7871,-2.7871,0,-2.7396,-2.7419,-2.7461,-2.751,-2.7547,-2.754,-2.7579,-2.7611,-2.7659,-2.7693,-2.7733,-2.7792,-2.7841,-2.7869,-2.7918,-2.7948,-2.7948,-2.796,-2.7958,-2.7963,-2.7887,-2.7872,-2.796,-2.796,-2.796,-2.796,-2.796,-2.796,-2.745,-2.7512,-2.7522,-2.7597,-2.762,-2.7673,-2.7696,-2.7726,-2.7754,-2.7819,-2.7859,-2.7877,-2.7909,-2.7961,-2.8005,-2.8012,-2.803,-2.8044,-2.805,-2.7978,-2.7969,-2.796,-2.7945,-2.8048,-2.8048,-2.8122,-2.8123,-2.8124]},{"header":{"parameterUnit":"m.s-1","parameterCategory":1,"la1":30.2991,"la2":30.254,"lo1":-89.0895,"lo2":-89.0444,"dy":0.0017,"dx":0.0017,"nx":28,"ny":28,"refTime":"2025-06-11T09:00:00:Z","depth":0,"parameterNumber":3,"parameterNumberName":"V-component_of_WINDS"},"data":[0,0,0,0,0,0,0,0,0,0,0,0,0,0,0,0,0,0,0,0,0,0,0,0,0,0,0,0,0,0,0,0,0,0,0,0,0,0,0,0,0,0,0,0,0,0,0,0,0,0,0,0,0,0,0,0,0,0,4.7527,4.7528,0,4.7589,4.7589,4.759,4.7536,4.7533,4.7531,4.7529,4.759,4.7594,4.7598,0,0,0,0,0,0,0,0,0,0,0,0,0,4.736,4.7363,4.7527,4.7528,4.7528,4.7589,4.7589,4.759,4.7536,4.7533,4.7531,4.7528,4.7589,4.7593,4.7598,0,0,0,0,0,0,0,0,0,0,0,0,0,4.7428,4.7364,4.7527,4.7509,4.7508,4.7588,4.7589,4.759,4.7537,4.7533,4.753,4.7527,4.7588,4.7593,4.7599,4.77,0,0,4.7616,4.7618,0,0,0,0,0,0,0,0,4.7424,4.7434,4.7511,4.751,4.7509,4.7551,4.7553,4.7627,4.7537,4.7526,4.7529,4.7525,4.758,4.7586,4.7605,4.7703,4.7705,4.7616,4.7619,4.7622,4.7623,0,0,0,0,0,0,0,4.7419,4.7431,4.7551,4.7512,4.7511,4.7497,4.7503,4.7567,4.7571,4.7526,4.7522,4.7531,4.7579,4.7599,4.7606,4.7706,4.7616,4.7621,4.7624,4.7626,4.7888,4.7892,0,0,0,0,0,0,4.7417,4.7428,4.7549,4.7553,4.7458,4.7502,4.7509,4.7541,4.757,4.7571,4.7533,4.7528,4.7592,4.7599,4.7608,4.7727,4.7622,4.7627,4.763,4.7885,4.7889,4.7893,0,0,0,0,0,0,4.7414,4.7428,4.7547,4.7489,4.7503,4.7509,4.7545,4.7544,4.7564,4.7575,4.7575,4.7554,4.7589,4.76,4.7677,4.7728,4.7629,4.7635,4.7881,4.7886,4.7891,4.7966,0,0,0,0,0,0,4.7409,4.7427,4.7467,4.7491,4.7507,4.7616,4.7548,4.7548,4.7574,4.7568,4.7595,4.7596,4.7587,4.7669,4.7683,4.7734,4.7639,4.7876,4.7883,4.7889,4.7959,4.7974,4.7986,0,0,0,0,0,4.7403,4.7485,4.7469,4.7484,4.7556,4.7619,4.7628,4.7618,4.7579,4.7618,4.7624,4.7595,4.7721,4.7677,4.7692,4.7746,4.7873,4.7881,4.7889,4.7953,4.7971,4.7986,0,0,0,0,0,0,4.7466,4.7488,4.747,4.7563,4.759,4.761,4.7658,4.7637,4.7675,4.7667,4.7651,4.7658,4.7739,4.775,4.7702,4.7845,4.779,4.7802,4.7834,4.7851,4.7864,4.7859,4.7643,0,0,0,0,0,4.7491,4.7542,4.7558,4.7637,4.7652,4.7653,4.768,4.767,4.7697,4.7708,4.772,4.7747,4.7792,4.7822,4.7865,4.7961,4.7965,4.8005,4.8019,4.8029,4.8039,4.8089,4.8107,4.792,4.792,4.792,0,0,4.7543,4.7561,4.7593,4.7651,4.767,4.7722,4.7663,4.772,4.7758,4.7716,4.7789,4.78,4.7828,4.7915,4.7954,4.7927,4.8092,4.804,4.8048,4.8052,4.8099,4.8117,4.8133,4.7925,4.7924,4.7923,0,0,4.7663,4.7682,4.775,4.7771,4.7802,4.7802,4.7818,4.7842,4.7847,4.7921,4.789,4.7934,4.8013,4.8035,4.8056,4.8183,4.8157,4.8198,4.8267,4.8316,4.833,4.8343,4.8387,4.8403,4.8207,4.8208,4.8208,0,4.7723,4.78,4.7788,4.7847,4.7872,4.7838,4.7906,4.7926,4.7969,4.7987,4.7956,4.8054,4.8071,4.8161,4.8192,4.8211,4.8228,4.8194,4.8329,4.8342,4.8354,4.8396,4.8412,4.8212,4.8212,4.8211,4.8211,0,4.7871,4.7925,4.7976,4.8018,4.8049,4.8113,4.811,4.8143,4.813,4.8133,4.8207,4.8227,4.8272,4.8293,4.828,4.8381,4.8363,4.8332,4.8276,4.8377,4.8415,4.8431,4.8219,4.8217,4.8216,4.8215,0,0,4.8032,4.8067,4.8085,4.8103,4.8135,4.8175,4.8237,4.8281,4.8309,4.834,4.839,4.8457,4.8428,4.8452,4.8442,4.8485,4.8583,4.8448,4.8448,4.8471,4.8693,4.8716,4.8735,4.8566,4.8569,4.8572,4.869,0,4.8151,4.8259,4.8249,4.835,4.8399,4.8367,4.842,4.8444,4.8449,4.849,4.8495,4.8542,4.8501,4.8515,4.8556,4.8562,4.8627,4.8554,4.8611,4.8613,4.8603,4.8755,4.878,4.889,4.8706,4.8708,4.871,0,4.8305,4.8341,4.8447,4.847,4.849,4.8538,4.8577,4.8618,4.8644,4.8644,4.8672,4.8654,4.8714,4.8659,4.8741,4.8692,4.8715,4.8721,4.8725,4.8729,4.8667,4.8761,4.8926,4.8942,4.8734,4.8732,4.873,0,4.841,4.8485,4.8558,4.8575,4.8603,4.8638,4.8651,4.8674,4.8701,4.8736,4.8753,4.8794,4.8816,4.8848,4.8841,4.8801,4.8925,4.8869,4.8925,4.8925,4.8951,4.8949,4.912,4.8969,4.8969,4.8968,4.8968,0,4.8544,4.861,4.8605,4.865,4.8722,4.871,4.8782,4.8791,4.8812,4.8857,4.8832,4.8874,4.8864,4.8906,4.8901,4.8969,4.898,4.898,4.8978,4.8982,4.8981,4.8995,4.8987,4.8973,4.8972,4.8971,4.897,0,4.8672,4.8672,4.8749,4.877,4.8777,4.8829,4.8846,4.8887,4.889,4.8947,4.896,4.8964,4.9012,4.9009,4.9063,4.9059,4.9143,4.9132,4.9134,4.9131,4.9187,4.9181,4.9371,4.9395,4.923,4.9232,4.9233,0,4.8757,4.8807,4.8833,4.8861,4.8877,4.8923,4.8951,4.8941,4.8971,4.9004,4.9041,4.9087,4.9123,4.9201,4.9208,4.9249,4.9238,4.9302,4.9244,4.9246,4.9237,4.9234,4.9238,4.9313,4.9315,4.9316,4.9317,0,4.8907,4.8904,4.8945,4.8986,4.9019,4.905,4.9079,4.9104,4.9097,4.9131,4.918,4.9208,4.9263,4.9308,4.9347,4.936,4.9337,4.9336,4.9351,4.9354,4.9353,4.9353,4.9163,4.9331,4.933,4.9329,4.9328,4.9328,4.9015,4.9057,4.9082,4.9127,4.9148,4.9175,4.9215,4.9222,4.9263,4.9307,4.9299,4.9354,4.9378,4.9428,4.9445,4.9486,4.9463,4.9485,4.949,4.9496,4.9501,4.9347,4.9494,4.9493,4.9493,4.9492,4.9492,0,4.9162,4.9176,4.9218,4.9259,4.9295,4.9272,4.9302,4.9333,4.9381,4.9406,4.9442,4.9498,4.9541,4.9552,4.9593,4.9625,4.9615,4.9636,4.9632,4.9635,4.952,4.9503,4.9642,4.9642,4.9642,4.9642,4.9642,4.9642,4.9243,4.9312,4.9312,4.9391,4.9405,4.9458,4.9477,4.9502,4.9521,4.9584,4.9621,4.9627,4.9646,4.9689,4.9727,4.9729,4.9745,4.9769,4.9767,4.9659,4.9644,4.9629,4.9612,4.9773,4.9773,4.9878,4.9879,4.988]}]]